• In India
  • List of Countries
  • For 7 days
  • Water Temperature
  • Satellite Maps
  • Weather Map
  • Weather Widgets
  • user-avatar
    Login

    Hourly Weather Malczyce

    Today, 19 September, Wednesday

    Time Temperature Precipitation Wind Pressure Humidity
    00:00 +20°C° 0 mm 4 mps 753 mmHg 64%
    01:00 +20°C° 0 mm 3 mps 753 mmHg 63%
    02:00 +19°C° 0 mm 3 mps 753 mmHg 63%
    03:00 +19°C° 0 mm 3 mps 753 mmHg 63%
    04:00 +19°C° 0 mm 3 mps 753 mmHg 63%
    05:00 +19°C° 0 mm 3 mps 753 mmHg 64%
    06:00 +20°C° 0 mm 3 mps 753 mmHg 65%
    07:00 +20°C° 0 mm 3 mps 754 mmHg 64%
    08:00 +23°C° 0 mm 2 mps 754 mmHg 60%
    09:00 +25°C° 0 mm 2 mps 754 mmHg 55%
    10:00 +27°C° 0 mm 2 mps 754 mmHg 51%
    11:00 +28°C° 0 mm 2 mps 754 mmHg 49%
    12:00 +29°C° 0 mm 2 mps 754 mmHg 46%
    13:00 +30°C° 0 mm 2 mps 754 mmHg 44%
    14:00 +30°C° 0 mm 2 mps 754 mmHg 44%
    15:00 +30°C° 0 mm 2 mps 754 mmHg 45%
    16:00 +30°C° 0 mm 2 mps 754 mmHg 45%
    17:00 +28°C° 0 mm 1 mps 754 mmHg 50%
    18:00 +26°C° 0 mm 1 mps 754 mmHg 56%
    19:00 +24°C° 0 mm 1 mps 754 mmHg 61%
    20:00 +23°C° 0 mm 1 mps 754 mmHg 63%
    21:00 +23°C° 0 mm 1 mps 755 mmHg 65%
    22:00 +21°C° 0 mm 2 mps 755 mmHg 67%
    23:00 +21°C° 0 mm 2 mps 755 mmHg 68%

    Tomorrow, 20 September, Thursday

    Time Temperature Precipitation Wind Pressure Humidity
    00:00 +21°C° 0 mm 2 mps 755 mmHg 70%
    01:00 +20°C° 0 mm 2 mps 755 mmHg 71%
    02:00 +20°C° 0 mm 2 mps 755 mmHg 72%
    03:00 +20°C° 0 mm 2 mps 755 mmHg 72%
    04:00 +19°C° 0 mm 2 mps 755 mmHg 73%
    05:00 +20°C° 0 mm 2 mps 755 mmHg 72%
    06:00 +20°C° 0 mm 2 mps 755 mmHg 72%
    07:00 +21°C° 0 mm 2 mps 755 mmHg 71%
    08:00 +24°C° 0 mm 2 mps 755 mmHg 64%
    09:00 +26°C° 0 mm 1 mps 755 mmHg 57%
    10:00 +28°C° 0 mm 1 mps 755 mmHg 50%
    11:00 +29°C° 0 mm 1 mps 755 mmHg 47%
    12:00 +30°C° 0 mm 1 mps 755 mmHg 44%
    13:00 +30°C° 0 mm 2 mps 754 mmHg 41%
    14:00 +30°C° 0 mm 2 mps 754 mmHg 41%
    15:00 +30°C° 0 mm 1 mps 754 mmHg 41%
    16:00 +30°C° 0 mm 1 mps 754 mmHg 42%
    17:00 +28°C° 0 mm 2 mps 753 mmHg 46%
    18:00 +26°C° 0 mm 2 mps 753 mmHg 51%
    19:00 +24°C° 0 mm 2 mps 753 mmHg 56%
    20:00 +24°C° 0 mm 2 mps 753 mmHg 57%
    21:00 +23°C° 0 mm 2 mps 753 mmHg 59%
    22:00 +21°C° 0 mm 2 mps 753 mmHg 61%
    23:00 +21°C° 0 mm 2 mps 753 mmHg 63%

    Day after tomorrow, 21 September, Friday

    Time Temperature Precipitation Wind Pressure Humidity
    00:00 +21°C° 0 mm 2 mps 753 mmHg 64%
    01:00 +20°C° 0 mm 2 mps 752 mmHg 66%
    02:00 +20°C° 0 mm 3 mps 752 mmHg 68%
    03:00 +19°C° 0 mm 3 mps 752 mmHg 70%
    04:00 +19°C° 0 mm 3 mps 751 mmHg 73%
    05:00 +19°C° 0 mm 3 mps 751 mmHg 72%
    06:00 +20°C° 0 mm 3 mps 751 mmHg 71%
    07:00 +20°C° 0 mm 3 mps 751 mmHg 71%
    08:00 +22°C° 0 mm 4 mps 750 mmHg 63%
    09:00 +25°C° 0 mm 5 mps 750 mmHg 55%
    10:00 +27°C° 0 mm 6 mps 750 mmHg 47%
    11:00 +28°C° 0 mm 6 mps 749 mmHg 44%
    12:00 +29°C° 0 mm 6 mps 749 mmHg 41%
    13:00 +30°C° 0 mm 6 mps 748 mmHg 38%
    14:00 +30°C° 0 mm 6 mps 748 mmHg 40%
    15:00 +30°C° 0 mm 5 mps 747 mmHg 41%
    16:00 +29°C° 0 mm 5 mps 747 mmHg 43%
    17:00 +28°C° 0 mm 5 mps 747 mmHg 47%
    18:00 +26°C° 0 mm 5 mps 748 mmHg 51%
    19:00 +25°C° 0 mm 5 mps 748 mmHg 54%
    20:00 +22°C° 0.2 mm 5 mps 749 mmHg 62%
    21:00 +21°C° 0.2 mm 5 mps 749 mmHg 69%
    22:00 +19°C° 0.2 mm 5 mps 750 mmHg 76%
    23:00 +17°C° 0.1 mm 5 mps 751 mmHg 75%

    22 September, Saturday

    Time Temperature Precipitation Wind Pressure Humidity
    00:00 +16°C° 0.1 mm 5 mps 751 mmHg 74%
    01:00 +15°C° 0.1 mm 4 mps 752 mmHg 73%
    02:00 +14°C° 0.6 mm 4 mps 752 mmHg 75%
    03:00 +14°C° 0.6 mm 3 mps 753 mmHg 77%
    04:00 +13°C° 0.6 mm 3 mps 753 mmHg 79%
    05:00 +13°C° 0.1 mm 3 mps 754 mmHg 78%
    06:00 +13°C° 0.1 mm 3 mps 754 mmHg 78%
    07:00 +13°C° 0.1 mm 3 mps 754 mmHg 77%
    08:00 +13°C° 0.1 mm 4 mps 754 mmHg 72%
    09:00 +14°C° 0.1 mm 4 mps 754 mmHg 68%
    10:00 +14°C° 0.1 mm 5 mps 755 mmHg 63%
    11:00 +15°C° 0.1 mm 5 mps 754 mmHg 57%
    12:00 +16°C° 0.1 mm 5 mps 754 mmHg 52%
    13:00 +17°C° 0.1 mm 6 mps 754 mmHg 46%
    14:00 +17°C° 0 mm 5 mps 753 mmHg 45%
    15:00 +17°C° 0 mm 5 mps 753 mmHg 44%
    16:00 +17°C° 0 mm 5 mps 753 mmHg 43%
    17:00 +15°C° 0 mm 4 mps 753 mmHg 47%
    18:00 +14°C° 0 mm 3 mps 754 mmHg 51%
    19:00 +13°C° 0 mm 3 mps 754 mmHg 55%
    20:00 +12°C° 0 mm 3 mps 754 mmHg 57%
    21:00 +12°C° 0 mm 3 mps 755 mmHg 59%
    22:00 +11°C° 0 mm 3 mps 755 mmHg 60%
    23:00 +11°C° 0 mm 3 mps 755 mmHg 62%

    23 September, Sunday

    Time Temperature Precipitation Wind Pressure Humidity
    00:00 +10°C° 0 mm 3 mps 755 mmHg 63%
    01:00 +10°C° 0 mm 3 mps 755 mmHg 64%
    02:00 +10°C° 0 mm 3 mps 755 mmHg 66%
    03:00 +9°C° 0 mm 3 mps 755 mmHg 68%
    04:00 +9°C° 0 mm 3 mps 755 mmHg 70%
    05:00 +9°C° 0 mm 2 mps 755 mmHg 70%
    06:00 +9°C° 0 mm 2 mps 755 mmHg 69%
    07:00 +10°C° 0 mm 2 mps 755 mmHg 69%
    08:00 +13°C° 0 mm 2 mps 754 mmHg 62%
    09:00 +15°C° 0 mm 2 mps 754 mmHg 55%
    10:00 +16°C° 0 mm 3 mps 754 mmHg 48%
    11:00 +17°C° 0 mm 3 mps 753 mmHg 45%
    12:00 +18°C° 0 mm 4 mps 752 mmHg 42%
    13:00 +19°C° 0 mm 5 mps 751 mmHg 39%
    14:00 +19°C° 0 mm 5 mps 749 mmHg 41%
    15:00 +19°C° 0 mm 5 mps 748 mmHg 43%
    16:00 +19°C° 0 mm 6 mps 747 mmHg 45%
    17:00 +19°C° 0 mm 6 mps 746 mmHg 48%
    18:00 +17°C° 0 mm 7 mps 745 mmHg 51%
    19:00 +16°C° 0 mm 7 mps 744 mmHg 55%
    20:00 +16°C° 0.1 mm 7 mps 742 mmHg 56%
    21:00 +17°C° 0.1 mm 7 mps 741 mmHg 58%
    22:00 +17°C° 0.1 mm 7 mps 740 mmHg 59%
    23:00 +16°C° 0.8 mm 6 mps 740 mmHg 64%

    24 September, Monday

    Time Temperature Precipitation Wind Pressure Humidity
    00:00 +16°C° 0.8 mm 6 mps 740 mmHg 70%
    01:00 +16°C° 0.8 mm 5 mps 740 mmHg 75%
    02:00 +15°C° 0.5 mm 5 mps 740 mmHg 76%
    03:00 +15°C° 0.5 mm 5 mps 740 mmHg 77%
    04:00 +14°C° 0.5 mm 5 mps 740 mmHg 78%
    05:00 +14°C° 0.2 mm 5 mps 740 mmHg 78%
    06:00 +13°C° 0.2 mm 5 mps 740 mmHg 77%
    07:00 +12°C° 0.2 mm 5 mps 740 mmHg 77%
    08:00 +11°C° 0.4 mm 6 mps 740 mmHg 75%
    09:00 +11°C° 0.4 mm 6 mps 740 mmHg 74%
    10:00 +12°C° 0.4 mm 7 mps 740 mmHg 72%
    11:00 +14°C° 0 mm 7 mps 740 mmHg 68%
    12:00 +15°C° 0 mm 7 mps 740 mmHg 64%
    13:00 +16°C° 0 mm 8 mps 739 mmHg 60%
    14:00 +15°C° 0.1 mm 8 mps 740 mmHg 64%
    15:00 +13°C° 0.1 mm 8 mps 741 mmHg 68%
    16:00 +13°C° 0.1 mm 8 mps 741 mmHg 73%
    17:00 +12°C° 0.1 mm 8 mps 743 mmHg 72%
    18:00 +11°C° 0.1 mm 8 mps 744 mmHg 71%
    19:00 +10°C° 0.1 mm 8 mps 745 mmHg 70%
    20:00 +10°C° 0 mm 8 mps 746 mmHg 69%
    21:00 +10°C° 0 mm 8 mps 746 mmHg 67%
    22:00 +9°C° 0 mm 8 mps 747 mmHg 66%
    23:00 +8°C° 0 mm 9 mps 748 mmHg 67%
    Show more